Overview Statistics Trail Chart Weather Telemetry Raw packets
 

This is the latest recevied weather packets stored in our database for station/object K0QED. If no packets are shown the sender has not sent any weather packets the latest 10 day(s).

<< 20 21 22 23 24 25 26 >>
Time Temp. Humidity Pressure Rain* Wind** Luminosity Snow
1788486573 21.67° C 33% 1022.2 hPa 0 mm - 0 W/m² -
1788486268 22.22° C 32% 1022.2 hPa 0 mm - 0 W/m² -
1788485964 22.22° C 32% 1022.4 hPa 0 mm - 0 W/m² -
1788485659 22.78° C 31% 1022.1 hPa 0 mm - 0 W/m² -
1788485355 22.78° C 30% 1022.4 hPa 0 mm - 0 W/m² -
1788485055 23.33° C 30% 1022.2 hPa 0 mm - 1 W/m² -
1788484749 23.33° C 30% 1022.1 hPa 0 mm - 3 W/m² -
1788484444 23.89° C 29% 1022.2 hPa 0 mm - 5 W/m² -
1788484139 24.44° C 28% 1022 hPa 0 mm - 6 W/m² -
1788483836 24.44° C 28% 1022.2 hPa 0 mm - 9 W/m² -
1788483530 25° C 28% 1022.2 hPa 0 mm - 11 W/m² -
1788483226 25° C 27% 1022 hPa 0 mm - 12 W/m² -
1788482921 25° C 27% 1022.1 hPa 0 mm - 15 W/m² -
1788482618 25° C 27% 1022 hPa 0 mm - 16 W/m² -
1788482318 25.56° C 26% 1022 hPa 0 mm - 17 W/m² -
1788482013 25.56° C 26% 1022.1 hPa 0 mm - 18 W/m² -
1788481709 25.56° C 26% 1021.9 hPa 0 mm - 20 W/m² -
1788481405 26.11° C 25% 1022.1 hPa 0 mm - 22 W/m² -
1788481129 26.11° C 25% 1022.1 hPa 0 mm - 23 W/m² -
1788480799 26.67° C 24% 1022 hPa 0 mm - 24 W/m² -
1788480495 26.67° C 24% 1022.1 hPa 0 mm - 25 W/m² -
1788480194 26.67° C 24% 1022.1 hPa 0 mm - 96 W/m² -
1788479888 27.22° C 24% 1022.1 hPa 0 mm - 72 W/m² -
1788479585 27.22° C 24% 1022.1 hPa 0 mm - 131 W/m² -
1788479284 27.78° C 24% 1022.1 hPa 0 mm - 29 W/m² -

* Rain latest hour (hover to see other rain measurements)
** Current wind speed in m/s (hover to see current wind gust speed)